Year,Month,Day,Hour,Minute,Value (Times are PST for temperature in C)
2009,08,19,00,00,16.70
2009,08,19,00,01,16.70
2009,08,19,00,02,16.70
2009,08,19,00,03,16.70
2009,08,19,00,04,16.70
2009,08,19,00,05,16.60
2009,08,19,00,06,16.60
2009,08,19,00,07,16.60
2009,08,19,00,08,16.60
2009,08,19,00,09,16.60
2009,08,19,00,10,16.60
2009,08,19,00,11,16.50
2009,08,19,00,12,16.50
2009,08,19,00,18,16.50
2009,08,19,00,19,16.40
2009,08,19,00,20,16.40
2009,08,19,00,21,16.40
2009,08,19,00,22,16.40
2009,08,19,00,23,16.40
2009,08,19,00,24,16.40
2009,08,19,00,25,16.40
2009,08,19,00,26,16.40
2009,08,19,00,27,16.40
2009,08,19,00,28,16.40
2009,08,19,00,29,16.40
2009,08,19,00,30,16.40
2009,08,19,00,31,16.40
2009,08,19,00,32,16.40
2009,08,19,00,33,16.40
2009,08,19,00,34,16.50
2009,08,19,00,35,16.50
2009,08,19,00,36,16.50
2009,08,19,00,37,16.60
2009,08,19,00,38,16.60
2009,08,19,00,39,16.60
2009,08,19,00,40,16.60
2009,08,19,00,41,16.60
2009,08,19,00,42,16.70
2009,08,19,00,43,16.70
2009,08,19,00,44,16.70
2009,08,19,00,45,16.80
2009,08,19,00,46,16.80
2009,08,19,00,47,16.80
2009,08,19,00,48,16.90
2009,08,19,00,49,16.90
2009,08,19,00,50,17.00
2009,08,19,00,51,17.00
2009,08,19,00,52,17.10
2009,08,19,00,53,17.10
2009,08,19,00,54,17.20
2009,08,19,00,55,17.20
2009,08,19,00,56,17.20
2009,08,19,00,57,17.20
2009,08,19,00,58,17.20
2009,08,19,00,59,17.20
2009,08,19,01,00,17.20
2009,08,19,01,01,17.20
2009,08,19,01,02,17.30
2009,08,19,01,03,17.30
2009,08,19,01,04,17.30
2009,08,19,01,05,17.30
2009,08,19,01,06,17.30
2009,08,19,01,07,17.30
2009,08,19,01,08,17.30
2009,08,19,01,09,17.30
2009,08,19,01,10,17.30
2009,08,19,01,11,17.20
2009,08,19,01,12,17.20
2009,08,19,01,13,17.30
2009,08,19,01,14,17.30
2009,08,19,01,15,17.30
2009,08,19,01,16,17.30
2009,08,19,01,17,17.30
2009,08,19,01,18,17.30
2009,08,19,01,19,17.20
2009,08,19,01,20,17.20
2009,08,19,01,21,17.20
2009,08,19,01,22,17.20
2009,08,19,01,23,17.20
2009,08,19,01,24,17.20
2009,08,19,01,25,17.20
2009,08,19,01,26,17.20
2009,08,19,01,27,17.10
2009,08,19,01,28,17.10
2009,08,19,01,29,17.10
2009,08,19,01,30,17.10
2009,08,19,01,31,17.10
2009,08,19,01,32,17.10
2009,08,19,01,33,17.10
2009,08,19,01,34,17.10
2009,08,19,01,35,17.10
2009,08,19,01,36,17.10
2009,08,19,01,37,17.10
2009,08,19,01,38,17.00
2009,08,19,01,39,17.00
2009,08,19,01,40,17.00
2009,08,19,01,41,17.00
2009,08,19,01,42,16.90
2009,08,19,01,43,16.90
2009,08,19,01,44,16.90
2009,08,19,01,45,16.90
2009,08,19,01,46,16.90
2009,08,19,01,47,16.90
2009,08,19,01,48,16.90
2009,08,19,01,49,16.90
2009,08,19,01,50,16.80
2009,08,19,01,51,16.80
2009,08,19,01,52,16.80
2009,08,19,01,53,16.80
2009,08,19,01,54,16.80
2009,08,19,01,55,16.80
2009,08,19,01,56,16.70
2009,08,19,01,57,16.70
2009,08,19,01,58,16.60
2009,08,19,01,59,16.50
2009,08,19,02,00,16.40
2009,08,19,02,01,16.30
2009,08,19,02,02,16.30
2009,08,19,02,03,16.20
2009,08,19,02,04,16.10
2009,08,19,02,05,16.10
2009,08,19,02,06,16.00
2009,08,19,02,07,15.90
2009,08,19,02,08,15.90
2009,08,19,02,09,15.90
2009,08,19,02,10,15.80
2009,08,19,02,11,15.80
2009,08,19,02,12,15.70
2009,08,19,02,13,15.70
2009,08,19,02,14,15.70
2009,08,19,02,15,15.60
2009,08,19,02,16,15.60
2009,08,19,02,17,15.60
2009,08,19,02,18,15.50
2009,08,19,02,19,15.50
2009,08,19,02,20,15.50
2009,08,19,02,21,15.50
2009,08,19,02,22,15.50
2009,08,19,02,23,15.50
2009,08,19,02,24,15.50
2009,08,19,02,25,15.40
2009,08,19,02,26,15.40
2009,08,19,02,27,15.40
2009,08,19,02,28,15.40
2009,08,19,02,29,15.30
2009,08,19,02,30,15.30
2009,08,19,02,31,15.30
2009,08,19,02,32,15.20
2009,08,19,02,33,15.20
2009,08,19,02,34,15.20
2009,08,19,02,35,15.20
2009,08,19,02,36,15.20
2009,08,19,02,37,15.20
2009,08,19,02,38,15.10
2009,08,19,02,39,15.10
2009,08,19,02,40,15.10
2009,08,19,02,41,15.10
2009,08,19,02,42,15.10
2009,08,19,02,43,15.10
2009,08,19,02,44,15.10
2009,08,19,02,45,15.10
2009,08,19,02,46,15.10
2009,08,19,02,47,15.10
2009,08,19,02,48,15.10
2009,08,19,02,49,15.10
2009,08,19,02,50,15.10
2009,08,19,02,51,15.00
2009,08,19,02,52,15.00
2009,08,19,02,53,15.00
2009,08,19,02,54,15.00
2009,08,19,02,55,15.00
2009,08,19,02,56,15.00
2009,08,19,02,57,15.00
2009,08,19,02,58,15.00
2009,08,19,02,59,15.00
2009,08,19,03,00,15.00
2009,08,19,03,01,15.00
2009,08,19,03,02,15.00
2009,08,19,03,03,15.00
2009,08,19,03,04,15.00
2009,08,19,03,05,15.00
2009,08,19,03,06,15.00
2009,08,19,03,07,14.90
2009,08,19,03,08,14.90
2009,08,19,03,09,14.90
2009,08,19,03,10,14.90
2009,08,19,03,11,14.90
2009,08,19,03,12,14.90
2009,08,19,03,13,14.80
2009,08,19,03,14,14.80
2009,08,19,03,15,14.80
2009,08,19,03,16,14.80
2009,08,19,03,17,14.80
2009,08,19,03,18,14.80
2009,08,19,03,19,14.80
2009,08,19,03,20,14.70
2009,08,19,03,21,14.70
2009,08,19,03,22,14.70
2009,08,19,03,23,14.70
2009,08,19,03,24,14.70
2009,08,19,03,25,14.70
2009,08,19,03,26,14.70
2009,08,19,03,27,14.70
2009,08,19,03,28,14.70
2009,08,19,03,29,14.70
2009,08,19,03,30,14.80
2009,08,19,03,31,14.80
2009,08,19,03,32,14.80
2009,08,19,03,33,14.70
2009,08,19,03,34,14.80
2009,08,19,03,35,14.80
2009,08,19,03,36,14.80
2009,08,19,03,37,14.80
2009,08,19,03,38,14.70
2009,08,19,03,39,14.70
2009,08,19,03,40,14.70
2009,08,19,03,41,14.70
2009,08,19,03,42,14.70
2009,08,19,03,43,14.70
2009,08,19,03,44,14.70
2009,08,19,03,45,14.60
2009,08,19,03,46,14.60
2009,08,19,03,47,14.60
2009,08,19,03,48,14.60
2009,08,19,03,49,14.50
2009,08,19,03,50,14.50
2009,08,19,03,51,14.50
2009,08,19,03,52,14.40
2009,08,19,03,53,14.40
2009,08,19,03,54,14.40
2009,08,19,03,55,14.40
2009,08,19,03,56,14.40
2009,08,19,03,57,14.40
2009,08,19,03,58,14.30
2009,08,19,03,59,14.30
2009,08,19,04,00,14.30
2009,08,19,04,01,14.30
2009,08,19,04,02,14.30
2009,08,19,04,03,14.30
2009,08,19,04,04,14.20
2009,08,19,04,05,14.20
2009,08,19,04,06,14.20
2009,08,19,04,07,14.20
2009,08,19,04,08,14.20
2009,08,19,04,09,14.20
2009,08,19,04,10,14.20
2009,08,19,04,11,14.20
2009,08,19,04,12,14.20
2009,08,19,04,13,14.20
2009,08,19,04,14,14.10
2009,08,19,04,15,14.10
2009,08,19,04,16,14.10
2009,08,19,04,17,14.10
2009,08,19,04,18,14.10
2009,08,19,04,19,14.10
2009,08,19,04,20,14.10
2009,08,19,04,21,14.10
2009,08,19,04,22,14.10
2009,08,19,04,23,14.10
2009,08,19,04,24,14.10
2009,08,19,04,25,14.10
2009,08,19,04,26,14.10
2009,08,19,04,27,14.10
2009,08,19,04,28,14.10
2009,08,19,04,29,14.10
2009,08,19,04,30,14.10
2009,08,19,04,31,14.00
2009,08,19,04,32,14.00
2009,08,19,04,33,14.00
2009,08,19,04,34,14.00
2009,08,19,04,35,14.00
2009,08,19,04,36,13.90
2009,08,19,04,37,13.90
2009,08,19,04,38,13.90
2009,08,19,04,39,13.90
2009,08,19,04,40,13.90
2009,08,19,04,41,13.90
2009,08,19,04,42,13.90
2009,08,19,04,43,13.90
2009,08,19,04,44,13.90
2009,08,19,04,45,13.90
2009,08,19,04,46,13.80
2009,08,19,04,47,13.80
2009,08,19,04,48,13.80
2009,08,19,04,49,13.80
2009,08,19,04,50,13.80
2009,08,19,04,51,13.80
2009,08,19,04,52,13.80
2009,08,19,04,53,13.80
2009,08,19,04,54,13.80
2009,08,19,04,55,13.80
2009,08,19,04,56,13.80
2009,08,19,04,57,13.80
2009,08,19,04,58,13.80
2009,08,19,04,59,13.80
2009,08,19,05,00,13.80
2009,08,19,05,01,13.70
2009,08,19,05,02,13.70
2009,08,19,05,03,13.70
2009,08,19,05,04,13.70
2009,08,19,05,05,13.70
2009,08,19,05,06,13.70
2009,08,19,05,07,13.70
2009,08,19,05,08,13.70
2009,08,19,05,09,13.70
2009,08,19,05,10,13.60
2009,08,19,05,11,13.60
2009,08,19,05,12,13.60
2009,08,19,05,13,13.60
2009,08,19,05,14,13.60
2009,08,19,05,15,13.60
2009,08,19,05,16,13.60
2009,08,19,05,17,13.50
2009,08,19,05,18,13.50
2009,08,19,05,19,13.40
2009,08,19,05,20,13.40
2009,08,19,05,21,13.40
2009,08,19,05,22,13.40
2009,08,19,05,23,13.40
2009,08,19,05,24,13.40
2009,08,19,05,25,13.40
2009,08,19,05,26,13.40
2009,08,19,05,27,13.40
2009,08,19,05,28,13.40
2009,08,19,05,29,13.40
2009,08,19,05,30,13.40
2009,08,19,05,31,13.40
2009,08,19,05,32,13.30
2009,08,19,05,33,13.30
2009,08,19,05,34,13.30
2009,08,19,05,35,13.30
2009,08,19,05,36,13.30
2009,08,19,05,37,13.20
2009,08,19,05,38,13.20
2009,08,19,05,39,13.20
2009,08,19,05,40,13.20
2009,08,19,05,41,13.20
2009,08,19,05,42,13.20
2009,08,19,05,43,13.20
2009,08,19,05,44,13.20
2009,08,19,05,45,13.20
2009,08,19,05,46,13.20
2009,08,19,05,47,13.20
2009,08,19,05,48,13.20
2009,08,19,05,49,13.20
2009,08,19,05,50,13.10
2009,08,19,05,51,13.10
2009,08,19,05,52,13.10
2009,08,19,05,53,13.10
2009,08,19,05,54,13.10
2009,08,19,05,55,13.10
2009,08,19,05,56,13.10
2009,08,19,05,57,13.10
2009,08,19,05,58,13.10
2009,08,19,05,59,13.00
2009,08,19,06,00,13.00
2009,08,19,06,01,13.10
2009,08,19,06,02,13.00
2009,08,19,06,03,13.00
2009,08,19,06,04,13.00
2009,08,19,06,05,13.00
2009,08,19,06,06,13.00
2009,08,19,06,07,13.00
2009,08,19,06,08,13.00
2009,08,19,06,09,13.00
2009,08,19,06,10,13.00
2009,08,19,06,11,13.00
2009,08,19,06,12,13.00
2009,08,19,06,13,13.00
2009,08,19,06,14,13.00
2009,08,19,06,15,13.00
2009,08,19,06,16,13.00
2009,08,19,06,17,13.00
2009,08,19,06,18,13.00
2009,08,19,06,19,13.00
2009,08,19,06,20,13.00
2009,08,19,06,21,13.00
2009,08,19,06,22,13.00
2009,08,19,06,23,13.00
2009,08,19,06,24,13.00
2009,08,19,06,25,13.00
2009,08,19,06,26,13.00
2009,08,19,06,27,13.00
2009,08,19,06,28,13.00
2009,08,19,06,29,13.00
2009,08,19,06,30,13.00
2009,08,19,06,31,13.00
2009,08,19,06,32,13.00
2009,08,19,06,33,13.00
2009,08,19,06,34,13.00
2009,08,19,06,35,13.00
2009,08,19,06,36,13.00
2009,08,19,06,37,13.00
2009,08,19,06,38,13.00
2009,08,19,06,39,13.00
2009,08,19,06,40,13.00
2009,08,19,06,41,13.00
2009,08,19,06,42,13.00
2009,08,19,06,43,13.00
2009,08,19,06,44,13.00
2009,08,19,06,45,13.00
2009,08,19,06,46,13.00
2009,08,19,06,47,13.00
2009,08,19,06,48,13.00
2009,08,19,06,49,13.00
2009,08,19,06,50,13.00
2009,08,19,06,51,13.00
2009,08,19,06,52,13.00
2009,08,19,06,53,13.00
2009,08,19,06,54,13.10
2009,08,19,06,55,13.10
2009,08,19,06,56,13.10
2009,08,19,06,57,13.10
2009,08,19,06,58,13.10
2009,08,19,06,59,13.10
2009,08,19,07,00,13.10
2009,08,19,07,01,13.20
2009,08,19,07,02,13.20
2009,08,19,07,03,13.20
2009,08,19,07,04,13.20
2009,08,19,07,05,13.20
2009,08,19,07,06,13.20
2009,08,19,07,07,13.20
2009,08,19,07,08,13.20
2009,08,19,07,09,13.20
2009,08,19,07,10,13.20
2009,08,19,07,11,13.20
2009,08,19,07,12,13.30
2009,08,19,07,13,13.30
2009,08,19,07,14,13.30
2009,08,19,07,15,13.30
2009,08,19,07,16,13.30
2009,08,19,07,17,13.30
2009,08,19,07,18,13.40
2009,08,19,07,19,13.40
2009,08,19,07,20,13.40
2009,08,19,07,21,13.50
2009,08,19,07,22,13.50
2009,08,19,07,23,13.60
2009,08,19,07,24,13.60
2009,08,19,07,25,13.60
2009,08,19,07,26,13.60
2009,08,19,07,27,13.60
2009,08,19,07,28,13.70
2009,08,19,07,29,13.70
2009,08,19,07,30,13.70
2009,08,19,07,31,13.70
2009,08,19,07,32,13.80
2009,08,19,07,33,13.80
2009,08,19,07,34,13.80
2009,08,19,07,35,13.90
2009,08,19,07,36,13.90
2009,08,19,07,37,13.90
2009,08,19,07,38,13.90
2009,08,19,07,39,14.00
2009,08,19,07,40,14.00
2009,08,19,07,41,14.00
2009,08,19,07,42,14.10
2009,08,19,07,43,14.10
2009,08,19,07,44,14.20
2009,08,19,07,45,14.20
2009,08,19,07,46,14.20
2009,08,19,07,47,14.20
2009,08,19,07,48,14.20
2009,08,19,07,49,14.30
2009,08,19,07,50,14.30
2009,08,19,07,51,14.30
2009,08,19,07,52,14.30
2009,08,19,07,53,14.30
2009,08,19,07,54,14.30
2009,08,19,07,55,14.40
2009,08,19,07,56,14.40
2009,08,19,07,57,14.40
2009,08,19,07,58,14.40
2009,08,19,07,59,14.50
2009,08,19,08,00,14.60
2009,08,19,08,01,14.60
2009,08,19,08,02,14.60
2009,08,19,08,03,14.70
2009,08,19,08,04,14.70
2009,08,19,08,05,14.80
2009,08,19,08,06,15.00
2009,08,19,08,07,15.00
2009,08,19,08,08,15.00
2009,08,19,08,09,15.10
2009,08,19,08,10,15.20
2009,08,19,08,11,15.30
2009,08,19,08,12,15.30
2009,08,19,08,13,15.40
2009,08,19,08,14,15.50
2009,08,19,08,15,15.60
2009,08,19,08,16,15.70
2009,08,19,08,17,15.80
2009,08,19,08,18,15.90
2009,08,19,08,19,16.00
2009,08,19,08,20,16.10
2009,08,19,08,21,16.20
2009,08,19,08,22,16.30
2009,08,19,08,23,16.40
2009,08,19,08,24,16.40
2009,08,19,08,25,16.50
2009,08,19,08,26,16.60
2009,08,19,08,27,16.70
2009,08,19,08,28,16.80
2009,08,19,08,29,16.90
2009,08,19,08,30,17.00
2009,08,19,08,31,17.10
2009,08,19,08,32,17.20
2009,08,19,08,33,17.30
2009,08,19,08,34,17.40
2009,08,19,08,35,17.50
2009,08,19,08,36,17.60
2009,08,19,08,37,17.70
2009,08,19,08,38,17.70
2009,08,19,08,39,17.80
2009,08,19,08,40,17.90
2009,08,19,08,41,17.90
2009,08,19,08,42,18.00
2009,08,19,08,43,18.20
2009,08,19,08,44,18.30
2009,08,19,08,45,18.40
2009,08,19,08,46,18.50
2009,08,19,08,47,18.60
2009,08,19,08,48,18.70
2009,08,19,08,49,18.80
2009,08,19,08,50,18.90
2009,08,19,08,51,19.00
2009,08,19,08,52,19.10
2009,08,19,08,53,19.20
2009,08,19,08,54,19.20
2009,08,19,08,55,19.30
2009,08,19,08,56,19.30
2009,08,19,08,57,19.40
2009,08,19,08,58,19.40
2009,08,19,08,59,19.40
2009,08,19,09,00,19.50
2009,08,19,09,01,19.60
2009,08,19,09,02,19.60
2009,08,19,09,03,19.70
2009,08,19,09,04,19.70
2009,08,19,09,05,19.80
2009,08,19,09,06,19.80
2009,08,19,09,07,19.80
2009,08,19,09,08,19.90
2009,08,19,09,09,20.00
2009,08,19,09,10,20.00
2009,08,19,09,11,20.10
2009,08,19,09,12,20.10
2009,08,19,09,13,20.20
2009,08,19,09,14,20.30
2009,08,19,09,15,20.40
2009,08,19,09,16,20.50
2009,08,19,09,17,20.60
2009,08,19,09,18,20.70
2009,08,19,09,19,20.80
2009,08,19,09,20,20.90
2009,08,19,09,21,21.00
2009,08,19,09,22,21.10
2009,08,19,09,23,21.20
2009,08,19,09,24,21.20
2009,08,19,09,25,21.30
2009,08,19,09,26,21.40
2009,08,19,09,27,21.50
2009,08,19,09,28,21.50
2009,08,19,09,29,21.60
2009,08,19,09,30,21.60
2009,08,19,09,31,21.70
2009,08,19,09,32,21.80
2009,08,19,09,33,21.80
2009,08,19,09,34,21.80
2009,08,19,09,35,21.90
2009,08,19,09,36,22.00
2009,08,19,09,37,22.00
2009,08,19,09,38,22.10
2009,08,19,09,39,22.10
2009,08,19,09,40,22.20
2009,08,19,09,41,22.20
2009,08,19,09,42,22.20
2009,08,19,09,43,22.20
2009,08,19,09,44,22.20
2009,08,19,09,45,22.20
2009,08,19,09,46,22.20
2009,08,19,09,47,22.30
2009,08,19,09,48,22.40
2009,08,19,09,49,22.40
2009,08,19,09,50,22.50
2009,08,19,09,51,22.60
2009,08,19,09,52,22.70
2009,08,19,09,53,22.70
2009,08,19,09,54,22.80
2009,08,19,09,55,22.90
2009,08,19,09,56,22.90
2009,08,19,09,57,22.90
2009,08,19,09,58,22.90
2009,08,19,09,59,23.00
2009,08,19,10,00,23.00
2009,08,19,10,01,23.10
2009,08,19,10,02,23.10
2009,08,19,10,03,23.20
2009,08,19,10,04,23.30
2009,08,19,10,05,23.30
2009,08,19,10,06,23.30
2009,08,19,10,07,23.30
2009,08,19,10,08,23.20
2009,08,19,10,09,23.10
2009,08,19,10,10,23.00
2009,08,19,10,11,22.80
2009,08,19,10,12,22.70
2009,08,19,10,13,22.50
2009,08,19,10,14,22.50
2009,08,19,10,15,22.40
2009,08,19,10,16,22.40
2009,08,19,10,17,22.40
2009,08,19,10,18,22.40
2009,08,19,10,19,22.40
2009,08,19,10,20,22.50
2009,08,19,10,21,22.50
2009,08,19,10,22,22.40
2009,08,19,10,23,22.40
2009,08,19,10,24,22.40
2009,08,19,10,25,22.40
2009,08,19,10,26,22.50
2009,08,19,10,27,22.60
2009,08,19,10,28,22.80
2009,08,19,10,29,22.90
2009,08,19,10,30,22.90
2009,08,19,10,31,23.00
2009,08,19,10,32,23.00
2009,08,19,10,33,23.00
2009,08,19,10,34,23.10
2009,08,19,10,35,23.10
2009,08,19,10,36,23.20
2009,08,19,10,37,23.30
2009,08,19,10,38,23.40
2009,08,19,10,39,23.40
2009,08,19,10,40,23.50
2009,08,19,10,41,23.60
2009,08,19,10,42,23.60
2009,08,19,10,43,23.80
2009,08,19,10,44,23.80
2009,08,19,10,45,23.80
2009,08,19,10,46,23.80
2009,08,19,10,47,23.70
2009,08,19,10,48,23.70
2009,08,19,10,49,23.70
2009,08,19,10,50,23.80
2009,08,19,10,51,23.80
2009,08,19,10,52,23.70
2009,08,19,10,53,23.70
2009,08,19,10,54,23.70
2009,08,19,10,55,23.70
2009,08,19,10,56,23.80
2009,08,19,10,57,23.80
2009,08,19,10,58,23.70
2009,08,19,10,59,23.70
2009,08,19,11,00,23.70
2009,08,19,11,01,23.80
2009,08,19,11,02,23.80
2009,08,19,11,03,23.90
2009,08,19,11,04,24.00
2009,08,19,11,05,24.00
2009,08,19,11,06,24.10
2009,08,19,11,07,24.10
2009,08,19,11,08,24.10
2009,08,19,11,09,24.10
2009,08,19,11,10,24.20
2009,08,19,11,11,24.20
2009,08,19,11,12,24.20
2009,08,19,11,13,24.10
2009,08,19,11,14,24.00
2009,08,19,11,15,23.90
2009,08,19,11,16,23.80
2009,08,19,11,17,23.80
2009,08,19,11,18,23.80
2009,08,19,11,19,23.80
2009,08,19,11,20,23.90
2009,08,19,11,21,23.90
2009,08,19,11,22,23.90
2009,08,19,11,23,24.00
2009,08,19,11,24,24.00
2009,08,19,11,25,24.00
2009,08,19,11,26,24.10
2009,08,19,11,27,24.10
2009,08,19,11,28,24.10
2009,08,19,11,29,24.10
2009,08,19,11,30,24.00
2009,08,19,11,31,24.00
2009,08,19,11,32,23.90
2009,08,19,11,33,23.90
2009,08,19,11,34,23.90
2009,08,19,11,35,23.90
2009,08,19,11,36,23.90
2009,08,19,11,37,23.90
2009,08,19,11,38,23.80
2009,08,19,11,39,23.80
2009,08,19,11,40,23.90
2009,08,19,11,41,23.90
2009,08,19,11,42,23.90
2009,08,19,11,43,24.00
2009,08,19,11,44,24.00
2009,08,19,11,45,23.80
2009,08,19,11,46,23.80
2009,08,19,11,47,23.80
2009,08,19,11,48,23.80
2009,08,19,11,49,23.80
2009,08,19,11,50,23.80
2009,08,19,11,51,23.80
2009,08,19,11,52,23.90
2009,08,19,11,53,23.90
2009,08,19,11,54,23.90
2009,08,19,11,55,23.90
2009,08,19,11,56,23.90
2009,08,19,11,57,23.80
2009,08,19,11,58,23.80
2009,08,19,11,59,23.80
2009,08,19,12,00,23.90
2009,08,19,12,01,24.00
2009,08,19,12,02,24.00
2009,08,19,12,03,24.00
2009,08,19,12,04,24.10
2009,08,19,12,05,24.10
2009,08,19,12,06,24.20
2009,08,19,12,07,24.10
2009,08,19,12,08,24.10
2009,08,19,12,09,24.10
2009,08,19,12,10,24.10
2009,08,19,12,11,24.10
2009,08,19,12,12,24.10
2009,08,19,12,13,24.20
2009,08,19,12,14,24.30
2009,08,19,12,15,24.40
2009,08,19,12,16,24.40
2009,08,19,12,17,24.40
2009,08,19,12,18,24.40
2009,08,19,12,19,24.40
2009,08,19,12,20,24.40
2009,08,19,12,21,24.40
2009,08,19,12,22,24.40
2009,08,19,12,23,24.40
2009,08,19,12,24,24.40
2009,08,19,12,25,24.40
2009,08,19,12,26,24.40
2009,08,19,12,27,24.40
2009,08,19,12,28,24.40
2009,08,19,12,29,24.50
2009,08,19,12,30,24.50
2009,08,19,12,31,24.50
2009,08,19,12,32,24.60
2009,08,19,12,33,24.60
2009,08,19,12,34,24.60
2009,08,19,12,35,24.70
2009,08,19,12,36,24.70
2009,08,19,12,37,24.70
2009,08,19,12,38,24.70
2009,08,19,12,39,24.80
2009,08,19,12,40,24.80
2009,08,19,12,41,24.90
2009,08,19,12,42,25.00
2009,08,19,12,43,25.10
2009,08,19,12,44,25.10
2009,08,19,12,45,25.10
2009,08,19,12,46,25.10
2009,08,19,12,47,25.10
2009,08,19,12,48,25.20
2009,08,19,12,49,25.20
2009,08,19,12,50,25.30
2009,08,19,12,51,25.30
2009,08,19,12,52,25.30
2009,08,19,12,53,25.30
2009,08,19,12,54,25.40
2009,08,19,12,55,25.40
2009,08,19,12,56,25.50
2009,08,19,12,57,25.60
2009,08,19,12,58,25.70
2009,08,19,12,59,25.70
2009,08,19,13,00,25.70
2009,08,19,13,01,25.60
2009,08,19,13,02,25.50
2009,08,19,13,03,25.40
2009,08,19,13,04,25.40
2009,08,19,13,05,25.50
2009,08,19,13,06,25.50
2009,08,19,13,07,25.50
2009,08,19,13,08,25.60
2009,08,19,13,09,25.60
2009,08,19,13,10,25.50
2009,08,19,13,11,25.50
2009,08,19,13,12,25.40
2009,08,19,13,13,25.40
2009,08,19,13,14,25.40
2009,08,19,13,15,25.30
2009,08,19,13,16,25.30
2009,08,19,13,17,25.30
2009,08,19,13,18,25.40
2009,08,19,13,19,25.50
2009,08,19,13,20,25.60
2009,08,19,13,21,25.70
2009,08,19,13,22,25.80
2009,08,19,13,23,25.90
2009,08,19,13,24,26.00
2009,08,19,13,25,26.10
2009,08,19,13,26,26.20
2009,08,19,13,27,26.20
2009,08,19,13,28,26.30
2009,08,19,13,29,26.40
2009,08,19,13,30,26.30
2009,08,19,13,31,26.30
2009,08,19,13,32,26.20
2009,08,19,13,33,26.20
2009,08,19,13,34,26.20
2009,08,19,13,35,26.10
2009,08,19,13,36,26.10
2009,08,19,13,37,26.00
2009,08,19,13,38,26.00
2009,08,19,13,39,25.90
2009,08,19,13,40,25.90
2009,08,19,13,41,25.90
2009,08,19,13,42,26.00
2009,08,19,13,43,26.10
2009,08,19,13,44,26.20
2009,08,19,13,45,26.20
2009,08,19,13,46,26.10
2009,08,19,13,47,26.10
2009,08,19,13,48,26.00
2009,08,19,13,49,26.10
2009,08,19,13,50,26.10
2009,08,19,13,51,26.10
2009,08,19,13,52,26.00
2009,08,19,13,53,25.90
2009,08,19,13,54,25.90
2009,08,19,13,55,25.90
2009,08,19,13,56,25.90
2009,08,19,13,57,25.90
2009,08,19,13,58,26.00
2009,08,19,13,59,26.10
2009,08,19,14,00,26.20
2009,08,19,14,01,26.30
2009,08,19,14,02,26.40
2009,08,19,14,03,26.50
2009,08,19,14,04,26.50
2009,08,19,14,05,26.50
2009,08,19,14,06,26.40
2009,08,19,14,07,26.50
2009,08,19,14,08,26.60
2009,08,19,14,09,26.60
2009,08,19,14,10,26.70
2009,08,19,14,11,26.70
2009,08,19,14,12,26.60
2009,08,19,14,13,26.60
2009,08,19,14,14,26.50
2009,08,19,14,15,26.50
2009,08,19,14,16,26.40
2009,08,19,14,17,26.30
2009,08,19,14,18,26.40
2009,08,19,14,19,26.30
2009,08,19,14,20,26.30
2009,08,19,14,21,26.20
2009,08,19,14,22,26.20
2009,08,19,14,23,26.30
2009,08,19,14,24,26.30
2009,08,19,14,25,26.40
2009,08,19,14,26,26.40
2009,08,19,14,27,26.50
2009,08,19,14,28,26.40
2009,08,19,14,29,26.50
2009,08,19,14,30,26.60
2009,08,19,14,31,26.60
2009,08,19,14,32,26.60
2009,08,19,14,33,26.60
2009,08,19,14,34,26.60
2009,08,19,14,35,26.60
2009,08,19,14,36,26.60
2009,08,19,14,37,26.60
2009,08,19,14,38,26.70
2009,08,19,14,39,26.70
2009,08,19,14,40,26.80
2009,08,19,14,41,26.90
2009,08,19,14,42,27.00
2009,08,19,14,43,27.10
2009,08,19,14,44,27.20
2009,08,19,14,45,27.20
2009,08,19,14,46,27.20
2009,08,19,14,47,27.20
2009,08,19,14,48,27.30
2009,08,19,14,49,27.40
2009,08,19,14,50,27.50
2009,08,19,14,51,27.70
2009,08,19,14,52,27.80
2009,08,19,14,53,27.70
2009,08,19,14,54,27.70
2009,08,19,14,55,27.60
2009,08,19,14,56,27.40
2009,08,19,14,57,27.40
2009,08,19,14,58,27.40
2009,08,19,14,59,27.40
2009,08,19,15,00,27.30
2009,08,19,15,01,27.30
2009,08,19,15,02,27.30
2009,08,19,15,03,27.40
2009,08,19,15,04,27.50
2009,08,19,15,05,27.50
2009,08,19,15,06,27.50
2009,08,19,15,07,27.40
2009,08,19,15,08,27.50
2009,08,19,15,09,27.50
2009,08,19,15,10,27.60
2009,08,19,15,11,27.60
2009,08,19,15,12,27.70
2009,08,19,15,13,27.70
2009,08,19,15,14,27.70
2009,08,19,15,15,27.80
2009,08,19,15,16,28.00
2009,08,19,15,17,28.10
2009,08,19,15,18,28.30
2009,08,19,15,19,28.30
2009,08,19,15,20,28.40
2009,08,19,15,21,28.40
2009,08,19,15,22,28.40
2009,08,19,15,23,28.40
2009,08,19,15,24,28.40
2009,08,19,15,25,28.40
2009,08,19,15,26,28.30
2009,08,19,15,27,28.30
2009,08,19,15,28,28.20
2009,08,19,15,29,28.20
2009,08,19,15,30,28.20
2009,08,19,15,31,28.30
2009,08,19,15,32,28.30
2009,08,19,15,33,28.40
2009,08,19,15,34,28.60
2009,08,19,15,35,28.70
2009,08,19,15,36,28.80
2009,08,19,15,37,28.80
2009,08,19,15,38,28.70
2009,08,19,15,39,28.70
2009,08,19,15,40,28.70
2009,08,19,15,41,28.70
2009,08,19,15,42,28.60
2009,08,19,15,43,28.50
2009,08,19,15,44,28.30
2009,08,19,15,45,28.20
2009,08,19,15,46,28.00
2009,08,19,15,47,27.90
2009,08,19,15,48,27.90
2009,08,19,15,49,27.70
2009,08,19,15,50,27.30
2009,08,19,15,51,27.10
2009,08,19,15,52,26.90
2009,08,19,15,53,26.60
2009,08,19,15,54,26.50
2009,08,19,15,55,26.40
2009,08,19,15,56,26.30
2009,08,19,15,57,26.30
2009,08,19,15,58,26.30
2009,08,19,15,59,26.30
2009,08,19,16,00,26.20
2009,08,19,16,01,26.10
2009,08,19,16,02,26.00
2009,08,19,16,03,25.90
2009,08,19,16,04,25.90
2009,08,19,16,05,25.90
2009,08,19,16,06,26.00
2009,08,19,16,07,26.10
2009,08,19,16,08,26.20
2009,08,19,16,09,26.20
2009,08,19,16,10,26.30
2009,08,19,16,11,26.40
2009,08,19,16,12,26.40
2009,08,19,16,13,26.50
2009,08,19,16,14,26.50
2009,08,19,16,15,26.50
2009,08,19,16,16,26.50
2009,08,19,16,17,26.50
2009,08,19,16,18,26.60
2009,08,19,16,19,26.70
2009,08,19,16,20,26.60
2009,08,19,16,21,26.60
2009,08,19,16,22,26.60
2009,08,19,16,23,26.60
2009,08,19,16,24,26.70
2009,08,19,16,25,26.90
2009,08,19,16,26,27.00
2009,08,19,16,27,27.10
2009,08,19,16,28,27.10
2009,08,19,16,29,27.10
2009,08,19,16,30,27.20
2009,08,19,16,31,27.20
2009,08,19,16,32,27.30
2009,08,19,16,33,27.30
2009,08,19,16,34,27.40
2009,08,19,16,35,27.50
2009,08,19,16,36,27.60
2009,08,19,16,37,27.70
2009,08,19,16,38,27.70
2009,08,19,16,39,27.60
2009,08,19,16,40,27.50
2009,08,19,16,41,27.50
2009,08,19,16,42,27.50
2009,08,19,16,43,27.60
2009,08,19,16,44,27.70
2009,08,19,16,45,27.80
2009,08,19,16,46,27.90
2009,08,19,16,47,28.00
2009,08,19,16,48,28.00
2009,08,19,16,49,28.00
2009,08,19,16,50,28.00
2009,08,19,16,51,28.10
2009,08,19,16,52,28.20
2009,08,19,16,53,28.10
2009,08,19,16,54,28.10
2009,08,19,16,55,28.10
2009,08,19,16,56,28.10
2009,08,19,16,57,28.20
2009,08,19,16,58,28.10
2009,08,19,16,59,28.10
2009,08,19,17,00,28.00
2009,08,19,17,01,28.00
2009,08,19,17,02,28.10
2009,08,19,17,03,28.10
2009,08,19,17,04,28.10
2009,08,19,17,05,28.10
2009,08,19,17,06,28.10
2009,08,19,17,07,28.20
2009,08,19,17,08,28.20
2009,08,19,17,09,28.20
2009,08,19,17,10,28.30
2009,08,19,17,11,28.30
2009,08,19,17,12,28.30
2009,08,19,17,13,28.20
2009,08,19,17,14,28.20
2009,08,19,17,15,28.10
2009,08,19,17,16,28.10
2009,08,19,17,17,28.00
2009,08,19,17,18,28.00
2009,08,19,17,19,27.90
2009,08,19,17,20,27.90
2009,08,19,17,21,27.90
2009,08,19,17,22,27.90
2009,08,19,17,23,27.80
2009,08,19,17,24,27.80